Wind_Speed
22 22 20 19 18 18 19 19 20 19 19 20 21 22 23 23 24 25 26 27 29 30 31 32 31 31 32 32 33 34 35 36 37 37 36 36 36 35
19 19 19 19 18 18 18 18 18 18 18 19 19 21 22 21 21 23 25 26 27 27 28 28 30 31 31 32 31 32 33 33 35 35 36 36 35 35
18 18 17 17 17 17 17 17 17 17 18 18 18 19 19 19 19 21 22 24 25 25 27 27 28 29 29 30 30 31 33 33 34 35 36 36 35 36
16 16 16 16 16 16 16 16 16 16 17 17 17 18 18 19 19 20 22 22 23 24 25 26 27 27 28 29 30 31 31 32 34 35 35 36 35 35
16 16 15 16 16 15 15 16 16 16 17 17 17 17 19 19 19 20 21 22 23 23 25 26 26 27 28 28 28 29 29 31 33 34 34 34 34 34
16 15 15 16 15 15 15 15 16 16 17 17 17 17 18 18 19 20 21 22 23 24 25 26 26 27 28 28 28 28 29 30 31 32 32 33 33 34
15 15 15 15 15 15 15 16 16 16 16 16 17 18 18 18 19 19 20 21 22 23 24 25 26 27 28 28 29 29 29 29 29 30 32 32 32 33
15 15 15 15 15 14 15 15 16 16 16 16 16 17 17 18 17 17 18 19 20 21 21 23 25 25 26 27 28 28 28 29 28 29 30 30 31 32
14 14 14 14 13 14 14 15 16 17 16 16 15 15 15 16 16 16 17 18 18 19 20 21 23 24 25 26 27 27 27 28 28 29 30 29 30 30
14 14 13 13 12 13 13 13 14 15 15 14 14 14 15 15 15 15 16 17 18 18 19 20 22 23 24 24 25 25 26 26 27 27 28 28 29 29
12 12 12 12 12 13 13 12 12 13 13 13 14 14 14 15 15 15 15 16 16 17 18 19 20 21 22 22 23 24 24 25 25 25 26 27 28 29
11 11 11 12 12 12 12 12 12 13 13 13 13 14 14 15 15 15 15 16 16 17 18 18 19 19 20 21 22 22 23 24 25 25 26 27 28 28
11 11 12 12 13 13 12 12 12 12 13 13 14 14 14 15 15 15 15 15 15 16 16 17 17 19 19 20 21 22 22 23 24 25 26 26 26 27
12 12 13 13 13 13 13 13 13 13 12 12 13 14 15 15 15 15 16 16 16 16 17 18 18 19 19 19 20 21 22 23 24 24 25 25 26 26
14 14 14 14 14 13 14 13 13 13 13 14 14 14 15 15 15 16 16 15 15 17 18 19 19 19 20 20 20 21 22 23 24 24 25 25 26 26
14 14 14 14 14 14 14 15 15 15 15 15 15 15 15 16 16 16 17 17 17 18 19 20 20 21 21 21 21 22 23 24 25 25 25 25 25 26
14 14 14 15 16 16 16 16 16 16 17 16 16 16 17 17 17 17 18 18 18 19 20 21 21 22 22 23 23 23 24 25 26 26 26 26 27 27
16 15 15 16 17 17 17 18 18 17 17 18 18 18 17 18 18 19 19 19 20 20 21 21 21 22 23 23 24 24 24 25 26 27 28 27 27 28
18 17 17 18 18 19 19 19 19 18 18 19 19 19 18 19 19 20 20 20 21 21 21 22 22 22 22 22 23 24 25 26 26 26 27 28 28 29
19 19 18 19 20 20 20 20 20 20 20 20 19 19 19 20 21 22 22 22 22 23 23 23 23 24 24 24 24 24 25 27 28 28 28 29 29 29
20 19 19 20 20 21 21 21 21 21 21 20 21 20 20 21 22 23 22 23 23 23 23 23 24 24 24 25 25 25 26 28 29 30 30 30 30 30
21 20 20 21 22 22 22 22 22 22 22 22 22 22 22 23 23 23 23 23 23 23 23 23 24 25 26 26 27 27 27 27 29 30 30 31 31 30
22 21 22 23 23 24 24 23 23 23 23 22 22 22 23 23 23 23 22 23 24 24 23 23 24 24 25 26 26 27 26 27 28 29 29 29 30 31
Wind_Direction
288 285 283 282 279 276 273 274 274 272 270 269 268 264 263 263 258 254 252 250 249 249 248 248 248 249 248 248 246 245 246 245 245 245 245 247 246 247
290 289 287 285 276 274 274 275 274 276 275 272 269 267 265 262 259 257 255 254 252 250 248 247 248 247 247 248 247 247 247 247 247 246 245 245 246 246
292 289 287 286 280 277 279 277 275 275 276 273 271 269 267 263 260 257 255 256 256 253 251 252 250 248 248 247 248 249 249 248 248 247 245 245 246 246
295 293 291 288 282 279 278 278 278 278 276 275 273 268 266 262 262 260 258 257 256 253 252 252 252 250 251 251 250 249 250 250 250 249 247 247 247 247
296 295 294 292 284 281 279 281 280 279 277 275 274 270 264 261 261 262 262 260 258 256 254 252 252 252 252 252 252 252 252 252 251 250 249 248 249 249
301 299 298 295 285 283 282 284 283 281 278 275 271 269 266 263 262 262 263 262 261 259 257 255 253 252 252 252 252 253 254 255 252 250 250 251 252 253
305 303 301 295 289 286 287 286 285 284 280 276 273 270 267 266 263 263 265 265 264 262 258 255 254 253 254 254 253 254 254 255 254 252 252 252 252 253
304 302 301 297 293 289 288 287 287 287 284 279 275 274 272 270 269 267 267 267 266 261 257 255 255 255 254 255 256 255 255 256 257 254 253 253 254 254
309 306 304 302 298 293 291 290 290 289 287 284 280 279 278 275 273 273 272 272 269 266 263 260 258 257 257 256 256 255 254 255 256 254 255 254 255 254
313 312 311 309 303 299 297 296 295 292 289 286 283 282 278 276 275 275 275 274 270 269 269 264 260 258 257 257 257 256 255 255 255 255 254 254 254 254
320 317 315 313 310 306 302 297 295 294 291 288 286 284 281 280 278 276 278 276 272 271 269 266 262 260 259 258 259 258 258 257 255 255 256 256 255 255
321 320 320 318 318 316 311 305 300 296 295 294 291 289 285 284 281 280 280 280 276 274 271 269 266 263 261 261 261 260 260 259 258 258 259 259 257 256
329 326 322 321 320 316 312 308 305 302 300 298 295 291 287 283 283 282 281 281 280 278 275 272 270 267 265 264 263 262 262 261 259 260 260 261 260 258
330 328 326 324 323 320 316 314 312 309 306 303 297 291 288 285 283 283 283 281 279 277 276 277 276 273 269 267 267 266 264 263 261 260 261 261 261 260
328 326 324 324 323 321 319 315 312 309 305 301 299 295 292 287 282 282 283 282 281 280 279 278 278 275 271 270 269 268 266 264 263 263 262 263 263 261
329 326 325 324 323 321 317 312 310 306 302 299 298 298 295 292 288 285 283 281 281 282 282 281 280 277 274 272 270 269 268 266 265 265 265 265 265 263
330 329 327 324 322 321 318 315 312 309 307 305 301 299 297 294 292 292 289 286 285 285 285 285 284 283 280 276 272 269 267 266 265 264 265 265 265 265
331 327 324 323 322 321 318 316 313 311 308 306 302 299 295 292 293 294 292 289 287 286 286 284 284 284 283 278 274 271 269 268 268 266 265 266 266 265
332 330 327 326 324 321 319 316 313 311 308 305 301 297 294 293 293 294 293 290 289 288 286 284 284 284 283 282 278 273 270 270 270 270 268 267 267 266
333 331 328 326 325 323 321 318 316 313 308 305 302 298 295 294 294 292 291 290 290 290 288 286 284 283 282 281 279 276 273 272 270 270 270 270 270 269
334 332 329 327 326 326 323 320 318 315 312 309 305 301 299 297 296 295 294 293 293 292 291 289 286 283 282 282 281 279 276 274 272 271 271 271 272 271
336 333 330 328 326 325 323 321 318 318 315 311 309 305 301 299 299 298 296 296 295 293 292 290 288 286 284 284 282 280 278 277 275 273 272 272 272 271
336 333 330 329 327 326 324 322 319 318 316 314 312 309 305 301 299 300 299 298 297 295 294 292 291 290 288 287 285 282 280 278 277 277 276 274 273 271
Height
5723 5722 5721 5720 5719 5719 5719 5719 5719 5718 5718 5717 5716 5717 5717 5718 5719 5720 5722 5723 5725 5727 5730 5732 5735 5737 5739 5742 5744 5747 5750 5753 5755 5758 5760 5763 5765 5767
5718 5717 5716 5715 5714 5714 5714 5714 5713 5713 5712 5712 5711 5711 5712 5712 5713 5714 5715 5716 5718 5720 5722 5725 5727 5729 5732 5734 5737 5739 5742 5744 5747 5749 5752 5754 5757 5759
5713 5712 5711 5710 5710 5710 5709 5709 5708 5708 5708 5707 5707 5706 5707 5707 5708 5709 5710 5711 5712 5714 5716 5718 5720 5722 5724 5727 5729 5732 5734 5736 5739 5741 5743 5746 5748 5750
5709 5708 5707 5706 5705 5705 5705 5704 5704 5703 5703 5703 5702 5702 5702 5702 5703 5704 5704 5705 5707 5708 5710 5712 5714 5716 5718 5720 5722 5724 5726 5728 5730 5732 5735 5737 5739 5741
5706 5704 5703 5702 5702 5701 5700 5700 5699 5699 5698 5698 5698 5698 5697 5698 5698 5699 5699 5700 5701 5703 5704 5706 5707 5709 5711 5713 5715 5717 5719 5720 5722 5724 5725 5728 5730 5732
5703 5701 5700 5699 5698 5697 5696 5696 5695 5695 5694 5694 5694 5693 5693 5693 5693 5694 5695 5695 5696 5697 5698 5700 5701 5703 5704 5706 5708 5710 5711 5712 5714 5715 5717 5719 5721 5723
5699 5698 5697 5695 5694 5693 5692 5692 5691 5690 5690 5689 5689 5689 5689 5688 5689 5689 5690 5690 5690 5691 5692 5693 5695 5696 5697 5699 5701 5702 5704 5705 5706 5707 5709 5710 5712 5714
5696 5695 5694 5692 5691 5690 5689 5688 5687 5686 5686 5685 5684 5684 5684 5684 5684 5684 5684 5685 5685 5685 5685 5686 5688 5689 5690 5692 5693 5694 5696 5697 5698 5699 5701 5702 5703 5705
5693 5692 5690 5689 5687 5686 5685 5684 5683 5682 5682 5681 5681 5680 5680 5680 5680 5680 5679 5679 5679 5679 5680 5680 5681 5682 5683 5684 5686 5687 5688 5689 5690 5691 5693 5694 5695 5697
5691 5689 5687 5686 5684 5683 5682 5681 5679 5678 5678 5677 5677 5676 5676 5676 5676 5675 5675 5675 5674 5674 5674 5675 5675 5676 5677 5678 5678 5679 5680 5682 5683 5684 5685 5686 5688 5689
5689 5687 5685 5684 5682 5680 5679 5678 5677 5675 5674 5673 5673 5673 5672 5672 5671 5671 5670 5670 5670 5669 5669 5669 5670 5670 5671 5671 5672 5673 5673 5674 5675 5677 5678 5679 5680 5681
5687 5685 5683 5681 5680 5678 5676 5675 5674 5673 5672 5671 5670 5669 5668 5668 5667 5667 5666 5666 5665 5665 5664 5664 5664 5664 5665 5665 5665 5666 5667 5667 5668 5669 5670 5671 5672 5673
5686 5683 5681 5679 5677 5675 5674 5672 5671 5670 5669 5668 5667 5666 5665 5664 5663 5663 5662 5661 5661 5660 5659 5659 5659 5658 5659 5659 5659 5659 5660 5660 5661 5662 5662 5663 5664 5665
5684 5682 5679 5677 5675 5673 5671 5670 5668 5667 5666 5664 5663 5662 5661 5660 5659 5658 5657 5657 5656 5656 5655 5654 5653 5653 5652 5652 5653 5653 5653 5653 5654 5655 5655 5655 5656 5657
5682 5680 5677 5675 5673 5671 5669 5667 5665 5664 5662 5661 5660 5658 5657 5656 5655 5654 5653 5652 5651 5650 5649 5648 5647 5647 5646 5646 5646 5646 5646 5646 5646 5647 5647 5648 5648 5649
5680 5678 5675 5673 5670 5668 5666 5664 5662 5660 5658 5657 5656 5654 5652 5651 5650 5648 5647 5646 5645 5644 5643 5642 5641 5640 5640 5639 5639 5639 5639 5639 5639 5639 5639 5640 5640 5641
5678 5675 5673 5670 5667 5665 5662 5660 5658 5656 5654 5652 5651 5649 5648 5646 5644 5643 5641 5640 5639 5638 5637 5635 5634 5633 5632 5632 5632 5631 5631 5631 5631 5631 5631 5632 5632 5633
5676 5673 5670 5667 5664 5661 5659 5656 5654 5652 5650 5648 5646 5644 5642 5641 5639 5637 5635 5634 5632 5631 5630 5629 5627 5626 5625 5624 5624 5623 5622 5622 5622 5622 5622 5623 5623 5623
5673 5670 5667 5664 5660 5657 5655 5652 5649 5647 5645 5642 5640 5638 5636 5635 5633 5631 5629 5627 5625 5624 5622 5621 5619 5618 5617 5616 5615 5614 5614 5614 5613 5613 5613 5613 5614 5615
5669 5666 5663 5659 5656 5653 5650 5647 5644 5641 5639 5636 5634 5632 5630 5628 5626 5624 5622 5620 5618 5616 5615 5613 5612 5610 5609 5608 5607 5606 5605 5604 5604 5604 5604 5604 5604 5605
5666 5663 5659 5656 5652 5649 5645 5642 5639 5636 5633 5630 5628 5625 5623 5621 5619 5617 5615 5613 5611 5609 5607 5605 5604 5602 5600 5599 5599 5598 5597 5595 5595 5594 5594 5594 5594 5594
5663 5659 5656 5652 5648 5645 5641 5638 5634 5631 5627 5624 5622 5619 5616 5614 5612 5609 5607 5605 5603 5601 5599 5598 5596 5594 5592 5591 5589 5588 5588 5586 5585 5584 5584 5584 5584 5584
5660 5656 5652 5648 5644 5640 5636 5632 5629 5625 5622 5619 5616 5612 5609 5607 5604 5602 5600 5598 5595 5593 5591 5589 5588 5585 5583 5582 5580 5579 5578 5577 5576 5575 5574 5574 5573 5573